MED324 LEZL-LPPT

Flight info

Callsign MED324
Flight time N/A
Altitude 21000
Route SANTA UM744 ROSAL EXONA UPULO
Aircraft A321/M-SDE3FGHIRWY/LB1

Departure

Time 2026-04-16 14:00
Airport Seville Airport (LEZL)

Arrival

Time N/A
Airport Lisbon Humberto Delgado Airport (LPPT)
Time Latitude Longitude Altitude Speed Heading
2026-04-16 13:59 37.41800 -5.87477 120 ft 0 kts 270°
2026-04-16 14:00 37.41800 -5.87528 120 ft 33 kts 270°
2026-04-16 14:00 37.41797 -5.88345 126 ft 152 kts 270°
2026-04-16 14:00 37.41946 -5.90047 698 ft 237 kts 283°
2026-04-16 14:00 37.42767 -5.92086 1266 ft 265 kts 303°
2026-04-16 14:01 37.44001 -5.93932 1809 ft 282 kts 312°
2026-04-16 14:01 37.45388 -5.95734 2321 ft 290 kts 314°
2026-04-16 14:01 37.46806 -5.97557 2823 ft 295 kts 314°
2026-04-16 14:01 37.48252 -5.99486 3337 ft 299 kts 313°
2026-04-16 14:02 37.49614 -6.01399 3829 ft 302 kts 311°
2026-04-16 14:02 37.51019 -6.03474 4348 ft 303 kts 310°
2026-04-16 14:02 37.52372 -6.05555 4857 ft 304 kts 309°
2026-04-16 14:02 37.53685 -6.07637 5359 ft 304 kts 308°
2026-04-16 14:03 37.54993 -6.09760 5865 ft 303 kts 307°
2026-04-16 14:03 37.56280 -6.11880 6368 ft 303 kts 306°
2026-04-16 14:03 37.57568 -6.14025 6875 ft 303 kts 304°
2026-04-16 14:03 37.58837 -6.16166 7377 ft 304 kts 304°
2026-04-16 14:04 37.60096 -6.18306 7876 ft 306 kts 304°
2026-04-16 14:04 37.61387 -6.20507 8387 ft 307 kts 304°
2026-04-16 14:04 37.62667 -6.22691 8890 ft 309 kts 304°
2026-04-16 14:04 37.63949 -6.24882 9393 ft 313 kts 304°
2026-04-16 14:05 37.65227 -6.27168 9904 ft 318 kts 302°
2026-04-16 14:05 37.66436 -6.29507 10405 ft 322 kts 300°
2026-04-16 14:05 37.67233 -6.31124 10743 ft 324 kts 300°
2026-04-16 14:05 37.67775 -6.32248 10975 ft 326 kts 299°
2026-04-16 14:06 37.68935 -6.34712 11477 ft 328 kts 298°
2026-04-16 14:06 37.70080 -6.37197 11975 ft 331 kts 298°
2026-04-16 14:06 37.71229 -6.39730 12477 ft 334 kts 298°
2026-04-16 14:06 37.72387 -6.42307 12982 ft 336 kts 297°
2026-04-16 14:07 37.73537 -6.44880 13483 ft 339 kts 297°
2026-04-16 14:07 37.74691 -6.47474 13983 ft 341 kts 297°
2026-04-16 14:07 37.75847 -6.50081 14481 ft 344 kts 297°
2026-04-16 14:07 37.77033 -6.52761 14989 ft 346 kts 297°
2026-04-16 14:08 37.78225 -6.55458 15496 ft 349 kts 297°
2026-04-16 14:08 37.79399 -6.58117 15993 ft 351 kts 297°
2026-04-16 14:08 37.80596 -6.60831 16496 ft 354 kts 297°
2026-04-16 14:08 37.81465 -6.62803 16859 ft 356 kts 297°
2026-04-16 14:09 37.82568 -6.65309 17318 ft 358 kts 297°
2026-04-16 14:09 37.83886 -6.68304 17862 ft 361 kts 297°
2026-04-16 14:09 37.85121 -6.71114 18369 ft 363 kts 297°
2026-04-16 14:09 37.86358 -6.73929 18873 ft 366 kts 297°
2026-04-16 14:10 37.87602 -6.76764 19376 ft 369 kts 297°
2026-04-16 14:10 37.88857 -6.79628 19813 ft 374 kts 297°
2026-04-16 14:10 37.90140 -6.82557 19945 ft 379 kts 297°
2026-04-16 14:10 37.91414 -6.85470 19997 ft 379 kts 297°
2026-04-16 14:11 37.92694 -6.88397 20001 ft 380 kts 297°
2026-04-16 14:11 37.94011 -6.91409 20001 ft 381 kts 297°
2026-04-16 14:11 37.95284 -6.94324 19999 ft 378 kts 297°
2026-04-16 14:11 37.96564 -6.97259 19999 ft 375 kts 297°
2026-04-16 14:12 37.97823 -7.00147 19999 ft 373 kts 297°
2026-04-16 14:12 37.99083 -7.03042 19999 ft 372 kts 297°
2026-04-16 14:12 38.00374 -7.05956 19996 ft 372 kts 299°
2026-04-16 14:12 38.01996 -7.08449 20005 ft 375 kts 311°
2026-04-16 14:13 38.03756 -7.10961 20006 ft 373 kts 305°
2026-04-16 14:13 38.05211 -7.13737 20005 ft 372 kts 300°
2026-04-16 14:13 38.06483 -7.16577 20003 ft 371 kts 297°
2026-04-16 14:13 38.07688 -7.19490 20001 ft 370 kts 295°
2026-04-16 14:14 38.08848 -7.22406 20000 ft 370 kts 295°
2026-04-16 14:14 38.09997 -7.25349 20000 ft 369 kts 295°
2026-04-16 14:14 38.11129 -7.28278 20000 ft 369 kts 294°
2026-04-16 14:14 38.12261 -7.31219 20000 ft 369 kts 294°
2026-04-16 14:15 38.13394 -7.34171 20000 ft 369 kts 294°
2026-04-16 14:15 38.14488 -7.37136 20000 ft 368 kts 292°
2026-04-16 14:15 38.15447 -7.40110 20000 ft 368 kts 290°
2026-04-16 14:15 38.16287 -7.43229 20001 ft 367 kts 286°
2026-04-16 14:16 38.16987 -7.46348 20001 ft 367 kts 284°
2026-04-16 14:16 38.17625 -7.49496 20000 ft 367 kts 283°
2026-04-16 14:16 38.18236 -7.52672 20000 ft 367 kts 283°
2026-04-16 14:16 38.18834 -7.55865 20000 ft 367 kts 282°
2026-04-16 14:17 38.19422 -7.59045 20000 ft 367 kts 282°
2026-04-16 14:17 38.20002 -7.62200 20000 ft 367 kts 282°
2026-04-16 14:17 38.20587 -7.65394 20000 ft 367 kts 282°
2026-04-16 14:17 38.21163 -7.68548 20000 ft 367 kts 282°
2026-04-16 14:18 38.21740 -7.71710 20000 ft 367 kts 282°
2026-04-16 14:18 38.22330 -7.74922 20002 ft 371 kts 282°
2026-04-16 14:18 38.22938 -7.78126 20003 ft 378 kts 283°
2026-04-16 14:18 38.23575 -7.81424 20003 ft 383 kts 283°
2026-04-16 14:19 38.24209 -7.84680 20002 ft 385 kts 283°
2026-04-16 14:19 38.24649 -7.86933 20001 ft 386 kts 283°
2026-04-16 14:19 38.25531 -7.91440 20001 ft 388 kts 283°
2026-04-16 14:19 38.25975 -7.93704 20001 ft 389 kts 283°
2026-04-16 14:20 38.26629 -7.97047 20000 ft 389 kts 283°
2026-04-16 14:20 38.27288 -8.00421 19877 ft 392 kts 283°
2026-04-16 14:20 38.27949 -8.03802 19438 ft 389 kts 283°
2026-04-16 14:20 38.28600 -8.07096 18718 ft 374 kts 283°
2026-04-16 14:21 38.29272 -8.10393 18009 ft 380 kts 284°
2026-04-16 14:21 38.29944 -8.13633 17301 ft 371 kts 284°
2026-04-16 14:21 38.30608 -8.16811 16589 ft 364 kts 284°
2026-04-16 14:21 38.31255 -8.19899 15878 ft 359 kts 284°
2026-04-16 14:22 38.31895 -8.22947 15107 ft 354 kts 284°
2026-04-16 14:22 38.32531 -8.25975 14326 ft 349 kts 284°
2026-04-16 14:22 38.33154 -8.28945 13550 ft 345 kts 284°
2026-04-16 14:22 38.33767 -8.31865 12772 ft 335 kts 284°
2026-04-16 14:23 38.34342 -8.34728 11995 ft 332 kts 283°
2026-04-16 14:23 38.34868 -8.37594 11220 ft 331 kts 282°
2026-04-16 14:23 38.35402 -8.40383 11032 ft 318 kts 283°
2026-04-16 14:23 38.35945 -8.43174 11008 ft 323 kts 283°
2026-04-16 14:24 38.36504 -8.45945 11001 ft 323 kts 283°
2026-04-16 14:24 38.37079 -8.48743 11000 ft 322 kts 284°
2026-04-16 14:24 38.37649 -8.51489 11000 ft 322 kts 284°
2026-04-16 14:24 38.38228 -8.54271 11000 ft 322 kts 284°
2026-04-16 14:25 38.38801 -8.57025 11000 ft 322 kts 284°
2026-04-16 14:25 38.39381 -8.59812 11000 ft 322 kts 284°
2026-04-16 14:25 38.39951 -8.62547 11000 ft 322 kts 284°
2026-04-16 14:25 38.40540 -8.65381 11000 ft 322 kts 284°
2026-04-16 14:26 38.41115 -8.68147 10912 ft 325 kts 284°
2026-04-16 14:26 38.41693 -8.70931 10550 ft 323 kts 284°
2026-04-16 14:26 38.42272 -8.73718 10201 ft 322 kts 284°
2026-04-16 14:26 38.42849 -8.76501 9548 ft 313 kts 284°
2026-04-16 14:27 38.43374 -8.79023 8966 ft 285 kts 284°
2026-04-16 14:27 38.43871 -8.81404 8404 ft 271 kts 284°
2026-04-16 14:27 38.44351 -8.83696 7846 ft 262 kts 284°
2026-04-16 14:27 38.44815 -8.85915 7292 ft 256 kts 284°
2026-04-16 14:28 38.45272 -8.88100 6736 ft 251 kts 284°
2026-04-16 14:28 38.45748 -8.90298 6166 ft 248 kts 286°
2026-04-16 14:28 38.46297 -8.92385 5610 ft 246 kts 290°
2026-04-16 14:28 38.46935 -8.94385 5062 ft 244 kts 294°
2026-04-16 14:29 38.47654 -8.96356 4502 ft 240 kts 296°
2026-04-16 14:29 38.48391 -8.98254 3955 ft 239 kts 297°
2026-04-16 14:29 38.49142 -9.00118 3839 ft 233 kts 298°
2026-04-16 14:29 38.49955 -9.01939 3802 ft 235 kts 301°
2026-04-16 14:30 38.50801 -9.03749 3792 ft 236 kts 301°
2026-04-16 14:30 38.51652 -9.05543 3790 ft 237 kts 302°
2026-04-16 14:30 38.52501 -9.07328 3786 ft 234 kts 302°
2026-04-16 14:30 38.53346 -9.09102 3863 ft 232 kts 302°
2026-04-16 14:31 38.54177 -9.10848 3789 ft 224 kts 302°
2026-04-16 14:31 38.54710 -9.11969 3784 ft 218 kts 301°
2026-04-16 14:31 38.55464 -9.13625 3783 ft 213 kts 300°
2026-04-16 14:31 38.56202 -9.15289 3781 ft 209 kts 300°
2026-04-16 14:32 38.56909 -9.16893 3784 ft 207 kts 300°
2026-04-16 14:32 38.57615 -9.18496 3785 ft 205 kts 300°
2026-04-16 14:32 38.58316 -9.20087 3617 ft 212 kts 300°
2026-04-16 14:32 38.59250 -9.21543 3180 ft 212 kts 319°
2026-04-16 14:33 38.60486 -9.22539 3008 ft 204 kts 332°
2026-04-16 14:33 38.61824 -9.23045 2883 ft 202 kts 356°
2026-04-16 14:33 38.63173 -9.22596 2894 ft 203 kts 27°
2026-04-16 14:33 38.64229 -9.21410 2926 ft 203 kts 46°
2026-04-16 14:34 38.65215 -9.20094 2781 ft 203 kts 42°
2026-04-16 14:34 38.66431 -9.19181 2470 ft 200 kts 22°
2026-04-16 14:34 38.67755 -9.18738 2244 ft 195 kts 12°
2026-04-16 14:34 38.69069 -9.18369 1974 ft 192 kts 14°
2026-04-16 14:35 38.70319 -9.17816 1722 ft 188 kts 21°
2026-04-16 14:35 38.71511 -9.17126 1476 ft 187 kts 25°
2026-04-16 14:35 38.72701 -9.16453 1228 ft 185 kts 23°
2026-04-16 14:35 38.73898 -9.15843 982 ft 184 kts 21°
2026-04-16 14:36 38.75080 -9.15232 738 ft 183 kts 22°
2026-04-16 14:36 38.76265 -9.14590 494 ft 182 kts 23°
2026-04-16 14:36 38.77365 -9.13998 384 ft 153 kts 22°